GW0557 Weather Reports


time (UTC)temp
C
wind
direction
speed
KPH
gust
KPH
rain 1hr
cm
rain 24hr
cm
rain mn
cm
humidity
%
barometer
mb
20260503203100 15 191 9.7 24.1 0.00 0.03 0.03 54 1012.3
20260503201554 15 189 11.3 24.1 0.00 0.03 0.03 52 1013.0
20260503200053 15 215 11.3 19.3 0.00 0.03 0.03 53 1013.0
20260503194618 15 202 9.7 16.1 0.00 0.03 0.03 55 1013.3
20260503193055 14 229 9.7 19.3 0.00 0.03 0.03 57 1013.9
20260503191601 13 196 4.8 14.5 0.00 0.03 0.03 59 1014.6
20260503190059 13 196 4.8 14.5 0.00 0.03 0.03 59 1014.6
20260503184556 13 188 8.0 17.7 0.00 0.03 0.03 55 1014.5
20260503183106 14 196 8.0 14.5 0.00 0.03 0.03 56 1014.3
20260503181552 13 207 9.7 14.5 0.00 0.03 0.03 59 1014.8
20260503180107 13 194 6.4 14.5 0.00 0.03 0.03 60 1015.4
20260503174554 13 234 6.4 12.9 0.00 0.03 0.03 58 1015.7
20260503173149 13 228 8.0 19.3 0.00 0.03 0.03 57 1016.0
20260503171555 13 190 8.0 16.1 0.00 0.03 0.03 57 1016.1
20260503130104 8 212 6.4 14.5 0.00 0.03 0.03 66 1017.6
20260503100111 3 173 3.2 6.4 0.00 0.03 0.03 75 1017.0
20260503090106 3 193 3.2 8.0 0.03 0.03 0.03 73 1017.0
20260503081600 3 194 3.2 4.8 0.00 0.00 0.00 73 1017.2
20260503071552 4 200 1.6 4.8 0.00 0.00 0.00 73 1017.2
20260503054550 4 0 0.0 0.0 0.00 0.00 0.00 72 1017.8
20260503053053 4 0 0.0 0.0 0.00 0.00 0.00 73 1017.9
20260503051551 4 0 0.0 0.0 0.00 0.00 0.00 73 1018.0
20260503050058 4 0 0.0 0.0 0.00 0.00 0.00 73 1018.0
20260503044556 4 0 0.0 0.0 0.00 0.00 0.00 73 1018.0
20260503043051 4 0 0.0 0.0 0.00 0.00 0.00 74 1018.0
20260503041553 4 0 0.0 1.6 0.00 0.00 0.00 74 1018.1
20260503040054 4 0 0.0 0.0 0.00 0.00 0.00 74 1018.0
20260503034550 4 0 0.0 0.0 0.00 0.00 0.00 73 1018.1
20260503033051 4 0 0.0 0.0 0.00 0.00 0.00 72 1018.2
20260503031557 5 0 0.0 0.0 0.00 0.00 0.00 71 1018.1
20260503030051 5 0 0.0 0.0 0.00 0.00 0.00 71 1018.2
20260503024552 5 0 0.0 0.0 0.00 0.00 0.00 69 1018.1
20260503023056 5 0 0.0 0.0 0.00 0.00 0.00 64 1018.1
20260503021552 6 0 0.0 1.6 0.00 0.00 0.00 64 1018.0
20260503020059 6 0 0.0 1.6 0.00 0.00 0.00 65 1018.0
20260503014558 6 0 0.0 0.0 0.00 0.00 0.00 55 1017.9
20260503013050 6 0 0.0 0.0 0.00 0.00 0.00 57 1017.8
20260503011604 7 0 0.0 1.6 0.00 0.00 0.00 59 1017.7
20260503010053 7 0 0.0 0.0 0.00 0.00 0.00 54 1017.6
20260503004549 8 0 0.0 1.6 0.00 0.00 0.00 54 1017.6
20260503003105 8 0 0.0 1.6 0.00 0.00 0.00 52 1017.5
20260503001552 9 0 0.0 3.2 0.00 0.00 0.00 47 1017.5
20260503000109 9 319 1.6 6.4 0.00 0.00 0.00 46 1017.5
20260502234551 9 0 0.0 6.4 0.00 0.00 0.00 51 1017.4
20260502233053 9 319 1.6 6.4 0.00 0.00 0.00 47 1017.4
20260502231616 9 316 3.2 6.4 0.00 0.00 0.00 44 1017.5
20260502230058 9 321 1.6 4.8 0.00 0.00 0.00 44 1017.5
20260502224600 9 315 1.6 6.4 0.00 0.00 0.00 45 1017.6
20260502223055 10 313 4.8 12.9 0.00 0.00 0.00 47 1017.6
20260502221556 10 333 3.2 8.0 0.00 0.00 0.00 45 1017.6
20260502220058 10 339 1.6 6.4 0.00 0.00 0.00 44 1017.5
20260502214556 10 325 4.8 12.9 0.00 0.00 0.00 45 1017.5
20260502213053 10 42 3.2 12.9 0.00 0.00 0.00 52 1017.4
20260502211554 10 312 1.6 8.0 0.00 0.00 0.00 49 1017.4
20260502210052 10 319 4.8 11.3 0.00 0.00 0.00 46 1017.5
20260502204552 10 13 3.2 14.5 0.00 0.00 0.00 47 1017.6